THOR BURNER 2 R/B, 2985

Orbit data source: Space-Track

THOR BURNER 2 R/B, 2985 is space debris in SSO originally from a launch on Wed, 11 Oct 1967 UTC launched from the Air Force Western Test Range (AFWTR). Debris objects in space refer to the collection of defunct objects orbiting the Earth. Examples of debris include non-operational satellites, rocket bodies, and fragments generated from explosions, collisions, or faulty payload assembly.

Loading next visibility...
Identifier
2985, 1967-096B
Orbit
SSO
Country
Flag of USUS
Related business
Manufacturer
Thiokol/TE
Mission
Spacecraft
Bus & Motor
STAR 37, Unknown motor
Mass
154 kg wet, 154 kg dry
Launch date (UTC)
1967-10-11 (59 years ago)
Launch vehicle
Unknown
Launch site
Air Force Western Test Range (AFWTR)
Object type
Payload
Rocket body
Debris
Shape & HBR
Unknown
Radar Cross Section
Large (>1 m²)

Expand to show TLE details & history
Last TLE update: 16 hours ago

TLE from 16 hours ago
0 THOR BURNER 2 R/B
1 02985U 67096B   26178.04953464  .00000781  00000-0  13550-3 0  9994
2 02985  99.1586 214.6592 0082854  36.5641 324.1178 14.69557333 94640
Epoch: 2026-06-27T01:11Z
TLE epoch observation values (Epoch: 2026-06-27T01:11:19.792Z)
Latitude
-0.00004°
Longitude
-78.34253°
Altitude
618.343 km
Speed
7.575 km/s
True Right ascension
14h 18m 38s
True Declination
0° 00' 00"
Sunlit
Object was in full shadow at epoch
Visualization orbit readout
Latitude
Unknown
Longitude
Unknown
Altitude
Unknown
Speed
Unknown
Apparent Right ascension
Unknown
Apparent Declination
Unknown
Sunlit
N/A
Visualization observer readout
Local Sidereal Time
04:10:46
Azimuth
Unknown
Elevation
Unknown
Doppler factor
Unknown
Orbital elements
Apogee altitude
717.907 km
Perigee altitude
601.286 km
Semi-major axis
7,037.734 km
Eccentricity
0.00829
Inclination
99.1586°
RAAN
214.6592°
Arg. of periapsis
36.5641°
True anomaly
323.55662°
Mean anomaly
324.1178°
Eccentric anomaly
323.83768°
Mean motion
3.67616 °/min
Orbital period
97.93 mins
BSTAR
0.0001355
Loading maneuver chart data...
Computing Atmospheric mass density...
Loading historical data...
Loading historical data...
Loading historical data...
Loading historical data...
Loading historical data...
Loading historical data...
Loading historical data...
Other satellites on launch #96 in the year 1967 (1967-10-11 UTC)

Documentation

Showing up to 5 results
|